Location: Bednik
(45.3500°N, 16.3833°E)
Time: 05:19:06
(UTC+00:00)

Cosmos 44 - Pass Details

Date: 08 August 2020
Orbit: 583 x 779 km, 65.1° (Epoch: 19 September)

Event Time Altitude Azimuth Distance (km) Brightness Sun altitude
Rises 21:15:24 0° 327° (NNW) 3,027 8.0 -24.4°
Reaches altitude 10° 21:17:45 10° 333° (NNW) 2,142 6.9 -24.6°
Maximum altitude 21:22:31 50° 49° (NE) 907 3.9 -25.0°
Enters shadow 21:23:07 48° 74° (ENE) 943 3.8 -25.0°
